Regional Weather Roundup
Issued by NWS

Home | Current Version | Previous Version | Graphics & Text | Print | Product List | Glossary On
Versions: 1 2 3 4 5 6 7 8 9 10 11 12 13 14 15 16 17 18 19 20 21 22 23 24 25 26 27 28 29 30 31 32 33 34 35 36 37 38 39 40 41 42 43 44 45 46 47 48 49 50
000
ASUS43 KFSD 282002
RWRSD

WEATHER ROUNDUP FOR SOUTH DAKOTA
NATIONAL WEATHER SERVICE SIOUX FALLS SD
200 PM CST SUN DEC 28 2014

NOTE: "FAIR" INDICATES FEW OR NO CLOUDS BELOW 12,000 FEET WITH NO
SIGNIFICANT WEATHER AND/OR OBSTRUCTIONS TO VISIBILITY.


SDZ001>005-009-010-012>017-282100-
NORTHWEST AND NORTH CENTRAL SOUTH DAKOTA

CITY           SKY/WX    TMP DP  RH WIND       PRES   REMARKS
BUFFALO          N/A     24  17  74 E15       29.89S WCI  11
FAITH            N/A     22  15  75 E12       30.00F WCI  10
MOBRIDGE       CLOUDY    17  11  77 E14       30.10R WCI   3
$$

SDZ012>016-024>037-041>051-057-063-072>074-282100-
SOUTHWEST AND SOUTH CENTRAL SOUTH DAKOTA

CITY           SKY/WX    TMP DP  RH WIND       PRES   REMARKS
RAPID CTY ARPT CLOUDY    26  15  63 NE9       29.93F WCI  17
PIERRE         PTSUNNY   19  15  84 E13       30.07S WCI   6
CUSTER         CLOUDY    22   8  55 E9        29.80F WCI  12
ELLSWORTH AFB  CLOUDY    26  14  60 E5        29.93F WCI  21
PHILIP         CLOUDY    21  13  71 E7        30.02S WCI  12
PINE RIDGE     CLOUDY    28  17  63 CALM      29.91F
WINNER         FAIR      20  11  68 E8        30.04F WCI  10
$$

SDZ004>011-016>023-039-040-282100-
NORTHEAST SOUTH DAKOTA

CITY           SKY/WX    TMP DP  RH WIND       PRES   REMARKS
ABERDEEN       CLOUDY    12   7  80 NE15      30.21S WCI  -4
WATERTOWN      CLOUDY    15  11  83 NE9       30.14R WCI   3
SISSETON         N/A      8   2  76 N12       30.23R WCI  -7
$$

SDZ017-020-022-023-036>040-048>070-282100-
SOUTHEAST SOUTH DAKOTA

CITY           SKY/WX    TMP DP  RH WIND       PRES   REMARKS
SIOUX FALLS    CLOUDY    17  14  88 NE9       30.14R WCI   6
HURON          CLOUDY    19  16  88 E10       30.16S WCI   7
MITCHELL       MOSUNNY   20  14  77 NE7       30.14F WCI  11
YANKTON        MOSUNNY   16  12  86 E5        30.13S WCI   9
$$

ABBREVIATIONS USED IN REMARKS
   TC - TEMPERATURE IN CELSIUS
  WCI - WIND CHILL INDEX
   HX - HEAT INDEX
  VSB - VISIBILITY




USA.gov is the U.S. government's official web portal to all federal, state and local government web resources and services.